Regional Weather Roundup
Issued by NWS

Home | Current Version | Previous Version | Text Only | Print | Product List | Glossary Off
Versions: 1 2 3 4 5 6 7 8 9 10 11 12 13 14 15 16 17 18 19 20 21 22 23 24 25 26 27

000
ASUS45 KBOI 230610
RWRID
WEATHER ROUNDUP FOR IDAHO
NATIONAL WEATHER SERVICE BOISE ID
1200 AM MDT THU OCT 23 2014

NOTE: "FAIR" INDICATES FEW OR NO CLOUDS BELOW 12000 FEET
WITH NO SIGNIFICANT WEATHER AND/OR OBSTRUCTIONS TO VISIBILITY

IDZ012-014-230700-
SOUTHWEST IDAHO


CITY           SKY/WX    TMP DP  RH WIND       PRES   REMARKS
BOISE          LGT RAIN  54  40  59 CALM      30.05R
CALDWELL       CLOUDY    54  37  54 SE8       30.05S
MOUNTAIN HOME  CLOUDY    55  34  44 S7        30.06R
$$

IDZ016-017-230700-
SOUTHCENTRAL IDAHO


CITY           SKY/WX    TMP DP  RH WIND       PRES   REMARKS
BURLEY         CLOUDY    54  28  36 S14G21    30.07F
JEROME         CLOUDY    48  30  49 NE14      30.07S
TWIN FALLS     CLOUDY    49  32  52 SE5       30.07S
$$

IDZ019>023-230700-
SOUTHEAST IDAHO


CITY           SKY/WX    TMP DP  RH WIND       PRES   REMARKS
IDAHO FALLS    MOCLDY    37  30  75 NW3       30.14S
POCATELLO      CLEAR     51  26  37 NE3       30.12S
REXBURG        PTCLDY    34  28  79 NE3       30.15S
$$

IDZ006-010-011-018-031-032-230700-
CENTRAL IDAHO MOUNTAINS


CITY           SKY/WX    TMP DP  RH WIND       PRES   REMARKS
MCCALL         LGT RAIN  47  37  68 S13G23    30.04R
HAILEY         CLOUDY    45  32  61 NW6       30.16S
STANLEY          N/A     44  31  60 SE10      30.12S
SALMON         CLOUDY   N/A N/A N/A MISG        N/A
CHALLIS        CLOUDY    45  35  68 CALM      30.06F
$$

IDZ002-004-006-007-026-230700-
NORTHERN IDAHO


CITY           SKY/WX    TMP DP  RH WIND       PRES   REMARKS
LEWISTON       CLOUDY    64  39  39 S6        29.82R
LOWELL           N/A     50  48  93 NW3       29.89S
COEUR D`ALENE  CLOUDY    52  46  82 S10       29.79F
MULLAN PASS    LGT RAIN  40  35  83 S9G18     29.89R WCI  34
$$



USA.gov is the U.S. government's official web portal to all federal, state and local government web resources and services.